[[{"header":{"parameterUnit":"m.s-1","parameterCategory":1,"la1":30.2991,"la2":30.254,"lo1":-89.0895,"lo2":-89.0444,"dy":0.0017,"dx":0.0017,"nx":28,"ny":28,"refTime":"2026-02-13T09:00:00:Z","depth":0,"parameterNumber":2,"parameterNumberName":"U-component_of_WINDS"},"data":[0,0,0,0,0,0,0,0,0,0,0,0,0,0,0,0,0,0,0,0,0,0,0,0,0,0,0,0,0,0,0,0,0,0,0,0,0,0,0,0,0,0,0,0,0,0,0,0,0,0,0,0,0,0,0,0,0,0,0.8083,0.8084,0,0.8179,0.818,0.8181,0.8183,0.8182,0.8181,0.8179,0.8282,0.8285,0.8289,0,0,0,0,0,0,0,0,0,0,0,0,0,0.7905,0.7908,0.8082,0.8084,0.8085,0.8178,0.818,0.8181,0.8183,0.8182,0.818,0.8179,0.828,0.8285,0.8289,0,0,0,0,0,0,0,0,0,0,0,0,0,0.799,0.7909,0.8082,0.8097,0.8099,0.8178,0.818,0.8181,0.8183,0.8182,0.818,0.8178,0.8279,0.8284,0.829,0.8362,0,0,0.8308,0.831,0,0,0,0,0,0,0,0,0.7985,0.7996,0.8094,0.8096,0.8099,0.8167,0.8155,0.8242,0.8184,0.8152,0.8179,0.8177,0.8245,0.8253,0.8276,0.8366,0.8371,0.8308,0.8312,0.8314,0.8316,0,0,0,0,0,0,0,0.7979,0.7992,0.8121,0.8095,0.8098,0.81,0.811,0.8171,0.8207,0.8154,0.8155,0.8166,0.8246,0.827,0.8278,0.8372,0.8308,0.8313,0.8317,0.8319,0.8529,0.8531,0,0,0,0,0,0,0.797,0.7987,0.8118,0.8123,0.8036,0.8105,0.8116,0.8147,0.8207,0.8214,0.8167,0.8166,0.8261,0.8271,0.8282,0.837,0.8314,0.8319,0.8323,0.8527,0.8529,0.8532,0,0,0,0,0,0,0.7966,0.7981,0.8114,0.8056,0.8073,0.811,0.8144,0.815,0.8174,0.8216,0.8223,0.8185,0.826,0.8274,0.8342,0.8374,0.8322,0.8327,0.8524,0.8528,0.853,0.8548,0,0,0,0,0,0,0.7961,0.798,0.8006,0.8056,0.8076,0.8171,0.8146,0.8153,0.8183,0.8182,0.8235,0.8242,0.826,0.8333,0.8348,0.8381,0.8332,0.8522,0.8526,0.8529,0.8545,0.8551,0.8557,0,0,0,0,0,0.7954,0.8008,0.8008,0.8023,0.8109,0.8173,0.8184,0.8202,0.8186,0.8213,0.8241,0.824,0.8368,0.834,0.8356,0.8392,0.852,0.8525,0.8529,0.8542,0.855,0.8557,0,0,0,0,0,0,0.7962,0.8015,0.8015,0.8086,0.8125,0.8173,0.8208,0.821,0.8256,0.8253,0.8275,0.8287,0.8355,0.8381,0.8349,0.8465,0.8442,0.845,0.8446,0.8454,0.846,0.8453,0.8337,0,0,0,0,0,0.7971,0.8017,0.8061,0.812,0.8139,0.817,0.8199,0.821,0.8251,0.8268,0.8301,0.8343,0.8393,0.8425,0.8473,0.8548,0.8561,0.8581,0.8587,0.8592,0.8599,0.8642,0.8652,0.8547,0.8547,0.8547,0,0,0.7992,0.8027,0.8054,0.8122,0.8153,0.8202,0.8184,0.8236,0.8273,0.8277,0.8343,0.8369,0.8417,0.8489,0.8523,0.8513,0.8631,0.8598,0.8602,0.8606,0.8648,0.8658,0.8667,0.8551,0.855,0.8549,0,0,0.8054,0.8085,0.8137,0.8169,0.8217,0.8237,0.825,0.8298,0.8315,0.8382,0.8386,0.8431,0.8516,0.8551,0.8579,0.8657,0.8658,0.8672,0.8704,0.8746,0.8754,0.8762,0.879,0.88,0.8679,0.8679,0.8679,0,0.8074,0.8146,0.8164,0.8216,0.8246,0.8251,0.8306,0.8336,0.8398,0.8419,0.8407,0.8514,0.8547,0.8628,0.8647,0.867,0.8686,0.8666,0.8751,0.8759,0.8766,0.8794,0.8804,0.868,0.868,0.868,0.868,0,0.8169,0.8219,0.8256,0.8314,0.8349,0.8401,0.8429,0.8462,0.8471,0.8493,0.8562,0.8602,0.8659,0.8679,0.8688,0.8762,0.8755,0.8746,0.8723,0.8777,0.8804,0.8814,0.8682,0.8682,0.8681,0.8681,0,0,0.8237,0.8306,0.8319,0.8346,0.84,0.8439,0.8494,0.8548,0.8577,0.862,0.8666,0.8739,0.8732,0.8765,0.8778,0.8815,0.8875,0.8803,0.8804,0.8815,0.8961,0.8967,0.8978,0.8876,0.8878,0.888,0.8957,0,0.8306,0.84,0.8419,0.8502,0.8549,0.8555,0.8603,0.8642,0.8665,0.871,0.8736,0.8787,0.8774,0.8794,0.883,0.886,0.8904,0.8854,0.8921,0.8923,0.8909,0.8992,0.8998,0.9069,0.8967,0.8969,0.897,0,0.8398,0.8442,0.853,0.8578,0.8599,0.8641,0.8693,0.8735,0.8781,0.8795,0.8832,0.8842,0.89,0.8874,0.8956,0.8922,0.895,0.8969,0.8973,0.898,0.895,0.9002,0.9092,0.9102,0.8986,0.8985,0.8984,0,0.844,0.8522,0.8585,0.8608,0.8666,0.8696,0.8721,0.8765,0.8797,0.8843,0.8865,0.8918,0.8947,0.8989,0.9013,0.8992,0.9094,0.907,0.9108,0.9108,0.9129,0.9127,0.9225,0.9147,0.9147,0.9147,0.9147,0,0.8515,0.8568,0.8604,0.8643,0.8704,0.8726,0.8786,0.8812,0.885,0.8896,0.8905,0.8948,0.8977,0.9025,0.9044,0.911,0.9123,0.9137,0.9142,0.9136,0.9134,0.9155,0.9151,0.915,0.9149,0.9149,0.9148,0,0.8571,0.8598,0.8667,0.8717,0.8731,0.8773,0.8816,0.8855,0.8879,0.8936,0.8951,0.8989,0.9045,0.9073,0.9144,0.9157,0.9231,0.9233,0.9215,0.9217,0.9255,0.9251,0.9369,0.9387,0.9297,0.9298,0.9298,0,0.8617,0.8658,0.8712,0.8743,0.8769,0.8818,0.8851,0.8875,0.8909,0.8965,0.8997,0.9054,0.91,0.9191,0.9225,0.928,0.9283,0.9321,0.9291,0.9285,0.9284,0.9282,0.9286,0.9326,0.9327,0.9327,0.9328,0,0.8696,0.8707,0.8753,0.8805,0.8844,0.8886,0.8927,0.8952,0.8983,0.9022,0.9079,0.9115,0.9187,0.9244,0.9301,0.9329,0.9335,0.9337,0.9349,0.9344,0.9333,0.934,0.923,0.9334,0.9334,0.9333,0.9333,0.9333,0.8749,0.8786,0.883,0.8882,0.8916,0.8955,0.8994,0.9023,0.907,0.913,0.9142,0.9203,0.9249,0.9327,0.9357,0.9406,0.9398,0.9415,0.942,0.9424,0.9426,0.9325,0.9417,0.9417,0.9417,0.9417,0.9416,0,0.8829,0.8858,0.8905,0.8963,0.9004,0.9004,0.9051,0.9086,0.9139,0.9181,0.9227,0.9294,0.9349,0.9389,0.9445,0.9478,0.9482,0.9492,0.949,0.9497,0.9429,0.9414,0.9488,0.9488,0.9488,0.9488,0.9488,0.9488,0.8875,0.8938,0.8955,0.9037,0.9066,0.9125,0.9151,0.9188,0.9222,0.9296,0.9341,0.9366,0.9408,0.9468,0.952,0.953,0.9551,0.9562,0.9572,0.9509,0.9501,0.9494,0.9479,0.9566,0.9566,0.9635,0.9636,0.9636]},{"header":{"parameterUnit":"m.s-1","parameterCategory":1,"la1":30.2991,"la2":30.254,"lo1":-89.0895,"lo2":-89.0444,"dy":0.0017,"dx":0.0017,"nx":28,"ny":28,"refTime":"2026-02-13T09:00:00:Z","depth":0,"parameterNumber":3,"parameterNumberName":"V-component_of_WINDS"},"data":[0,0,0,0,0,0,0,0,0,0,0,0,0,0,0,0,0,0,0,0,0,0,0,0,0,0,0,0,0,0,0,0,0,0,0,0,0,0,0,0,0,0,0,0,0,0,0,0,0,0,0,0,0,0,0,0,0,0,-0.2144,-0.2144,0,-0.2181,-0.2182,-0.2182,-0.2187,-0.2186,-0.2186,-0.2185,-0.2227,-0.2228,-0.2229,0,0,0,0,0,0,0,0,0,0,0,0,0,-0.2079,-0.208,-0.2144,-0.2144,-0.2145,-0.2181,-0.2182,-0.2182,-0.2187,-0.2186,-0.2186,-0.2185,-0.2226,-0.2228,-0.223,0,0,0,0,0,0,0,0,0,0,0,0,0,-0.2111,-0.208,-0.2144,-0.2151,-0.2152,-0.2181,-0.2182,-0.2182,-0.2187,-0.2186,-0.2186,-0.2185,-0.2226,-0.2228,-0.223,-0.2255,0,0,-0.2237,-0.2237,0,0,0,0,0,0,0,0,-0.2109,-0.2113,-0.215,-0.2151,-0.2152,-0.2179,-0.2174,-0.2207,-0.2187,-0.2174,-0.2185,-0.2185,-0.2211,-0.2215,-0.2223,-0.2257,-0.2258,-0.2237,-0.2238,-0.2239,-0.224,0,0,0,0,0,0,0,-0.2107,-0.2111,-0.2159,-0.215,-0.2152,-0.2154,-0.2157,-0.218,-0.2195,-0.2175,-0.2175,-0.2179,-0.2212,-0.2221,-0.2224,-0.2259,-0.2237,-0.2239,-0.224,-0.2241,-0.2316,-0.2316,0,0,0,0,0,0,-0.2103,-0.211,-0.2157,-0.216,-0.2128,-0.2155,-0.216,-0.2171,-0.2195,-0.2198,-0.218,-0.2179,-0.2217,-0.2221,-0.2225,-0.2257,-0.2239,-0.2241,-0.2242,-0.2315,-0.2316,-0.2316,0,0,0,0,0,0,-0.2101,-0.2107,-0.2156,-0.2135,-0.2141,-0.2157,-0.2169,-0.2172,-0.2181,-0.2199,-0.2202,-0.2186,-0.2217,-0.2222,-0.2247,-0.2258,-0.2242,-0.2244,-0.2314,-0.2315,-0.2316,-0.2319,0,0,0,0,0,0,-0.2099,-0.2106,-0.2115,-0.2135,-0.2142,-0.2176,-0.217,-0.2173,-0.2184,-0.2184,-0.2205,-0.2209,-0.2217,-0.2244,-0.2249,-0.2261,-0.2246,-0.2313,-0.2315,-0.2316,-0.2318,-0.232,-0.2321,0,0,0,0,0,-0.2097,-0.2115,-0.2116,-0.2121,-0.2153,-0.2177,-0.2181,-0.219,-0.2185,-0.2194,-0.2206,-0.2208,-0.2256,-0.2247,-0.2253,-0.2265,-0.2313,-0.2314,-0.2316,-0.2317,-0.2319,-0.2321,0,0,0,0,0,0,-0.2097,-0.2117,-0.2119,-0.2143,-0.2158,-0.2177,-0.219,-0.2192,-0.2209,-0.2208,-0.2219,-0.2224,-0.2249,-0.2259,-0.2249,-0.229,-0.2284,-0.2287,-0.2283,-0.2285,-0.2287,-0.2284,-0.2247,0,0,0,0,0,-0.2099,-0.2116,-0.2133,-0.2153,-0.2161,-0.2174,-0.2184,-0.219,-0.2206,-0.2213,-0.2226,-0.2243,-0.2262,-0.2274,-0.2292,-0.2319,-0.2324,-0.2331,-0.2332,-0.2334,-0.2336,-0.2352,-0.2355,-0.2322,-0.2322,-0.2321,0,0,-0.2105,-0.2119,-0.2128,-0.2154,-0.2166,-0.2183,-0.2179,-0.2198,-0.2211,-0.2216,-0.224,-0.2251,-0.227,-0.2296,-0.2308,-0.2305,-0.2347,-0.2336,-0.2337,-0.2338,-0.2354,-0.2357,-0.236,-0.2323,-0.2322,-0.2322,0,0,-0.2125,-0.2136,-0.2155,-0.2167,-0.2185,-0.2194,-0.2198,-0.2217,-0.2224,-0.2248,-0.2252,-0.2269,-0.2301,-0.2315,-0.2326,-0.2351,-0.2354,-0.2357,-0.2367,-0.2382,-0.2385,-0.2387,-0.2397,-0.24,-0.236,-0.236,-0.236,0,-0.213,-0.2156,-0.2164,-0.2182,-0.2194,-0.2198,-0.2217,-0.2229,-0.2252,-0.2261,-0.2257,-0.2297,-0.2311,-0.234,-0.2347,-0.2355,-0.2362,-0.2355,-0.2384,-0.2386,-0.2389,-0.2398,-0.2402,-0.236,-0.236,-0.236,-0.236,0,-0.2162,-0.218,-0.2193,-0.2214,-0.2227,-0.2246,-0.2258,-0.227,-0.2274,-0.2284,-0.2309,-0.2325,-0.2347,-0.2354,-0.2359,-0.2385,-0.2383,-0.2381,-0.2375,-0.2392,-0.2401,-0.2405,-0.236,-0.236,-0.236,-0.236,0,0,-0.2183,-0.2209,-0.2213,-0.2224,-0.2244,-0.2259,-0.2278,-0.2299,-0.2309,-0.2326,-0.2343,-0.237,-0.2369,-0.2382,-0.2388,-0.2401,-0.2421,-0.2398,-0.2399,-0.2403,-0.2452,-0.2454,-0.2458,-0.2423,-0.2424,-0.2424,-0.2451,0,-0.2206,-0.2239,-0.2247,-0.2276,-0.2293,-0.2297,-0.2314,-0.233,-0.2339,-0.2356,-0.2367,-0.2386,-0.2382,-0.239,-0.2404,-0.2416,-0.2432,-0.2414,-0.244,-0.2441,-0.2436,-0.2462,-0.2464,-0.2488,-0.2454,-0.2455,-0.2455,0,-0.2236,-0.2253,-0.2283,-0.2302,-0.231,-0.2325,-0.2344,-0.236,-0.2378,-0.2384,-0.2398,-0.2403,-0.2424,-0.2417,-0.2447,-0.2435,-0.2446,-0.2454,-0.2455,-0.2459,-0.245,-0.2467,-0.2496,-0.25,-0.2461,-0.2461,-0.246,0,-0.2249,-0.2279,-0.2301,-0.231,-0.2332,-0.2343,-0.2353,-0.237,-0.2382,-0.2399,-0.2408,-0.2428,-0.2439,-0.2455,-0.2466,-0.2459,-0.2496,-0.2489,-0.2503,-0.2502,-0.2511,-0.251,-0.2542,-0.2517,-0.2517,-0.2516,-0.2516,0,-0.2274,-0.2293,-0.2307,-0.2321,-0.2343,-0.2352,-0.2373,-0.2384,-0.2399,-0.2415,-0.2421,-0.2436,-0.2449,-0.2467,-0.2476,-0.25,-0.2505,-0.2512,-0.2514,-0.2512,-0.2511,-0.252,-0.2518,-0.2517,-0.2517,-0.2517,-0.2517,0,-0.2292,-0.2303,-0.2327,-0.2346,-0.2352,-0.2367,-0.2383,-0.2398,-0.2407,-0.2428,-0.2434,-0.2449,-0.2471,-0.2483,-0.251,-0.2516,-0.2543,-0.2544,-0.2537,-0.2538,-0.2552,-0.255,-0.2591,-0.2597,-0.2567,-0.2567,-0.2567,0,-0.2308,-0.2322,-0.2343,-0.2354,-0.2364,-0.2381,-0.2394,-0.2403,-0.2416,-0.2438,-0.2449,-0.2471,-0.2489,-0.2523,-0.2537,-0.2558,-0.2561,-0.2573,-0.2564,-0.2561,-0.2562,-0.2561,-0.2563,-0.2575,-0.2575,-0.2576,-0.2576,0,-0.2334,-0.2339,-0.2355,-0.2374,-0.2389,-0.2404,-0.242,-0.2429,-0.2442,-0.2456,-0.2477,-0.2491,-0.2518,-0.254,-0.2562,-0.2574,-0.2578,-0.2579,-0.2583,-0.2581,-0.2577,-0.258,-0.2542,-0.2578,-0.2578,-0.2577,-0.2577,-0.2577,-0.2352,-0.2365,-0.2382,-0.2401,-0.2413,-0.2428,-0.2442,-0.2453,-0.2471,-0.2493,-0.2498,-0.2521,-0.254,-0.257,-0.2582,-0.2601,-0.2598,-0.2605,-0.2606,-0.2608,-0.2609,-0.2573,-0.2605,-0.2605,-0.2605,-0.2605,-0.2605,0,-0.2379,-0.239,-0.2407,-0.2429,-0.2444,-0.2444,-0.2462,-0.2475,-0.2495,-0.2511,-0.2528,-0.2553,-0.2574,-0.259,-0.2612,-0.2624,-0.2627,-0.263,-0.263,-0.2632,-0.2609,-0.2603,-0.2628,-0.2628,-0.2628,-0.2628,-0.2628,-0.2628,-0.2395,-0.2418,-0.2425,-0.2454,-0.2465,-0.2487,-0.2497,-0.2511,-0.2523,-0.2551,-0.2568,-0.2578,-0.2595,-0.2618,-0.2638,-0.2642,-0.265,-0.2654,-0.2658,-0.2636,-0.2634,-0.2632,-0.2626,-0.2655,-0.2655,-0.268,-0.268,-0.268]}]]